Regional Weather Roundup
Issued by NWS

Home | Current Version | Previous Version | Text Only | Print | Product List | Glossary On
Versions: 1 2 3 4 5 6 7 8 9 10 11 12 13 14 15 16 17 18 19 20 21 22 23 24 25 26 27 28 29 30 31 32 33 34 35 36 37 38 39 40 41 42 43 44 45 46 47 48 49 50
332
ASUS44 KFWD 221003
RWRTX
NORTH TEXAS HOURLY WEATHER ROUNDUP
NATIONAL WEATHER SERVICE FORT WORTH TX
500 AM CDT FRI MAY 22 2015

NOTE: "FAIR" INDICATES FEW OR NO CLOUDS BELOW 12,000 FEET WITH NO
SIGNIFICANT WEATHER AND/OR OBSTRUCTIONS TO VISIBILITY.

TXZ118-119-221100-
DALLAS/FORT WORTH METROPLEX

CITY           SKY/WX    TMP DP  RH WIND       PRES   REMARKS
DFW AIRPORT    CLOUDY    60  58  92 SE10      30.13S
DALLAS LOVE    CLOUDY    62  58  86 E9        30.14R
FTW MEACHAM    CLOUDY    62  59  90 E12       30.12S
DAL-EXECUTIVE  CLOUDY    60  58  92 E9        30.14R
FTW-ALLIANCE   DRIZZLE   61  59  93 SE10      30.13R
FTW-NAS-JRB    CLOUDY    62  61  96 SE9       30.12F FOG
FTW-SPINKS     CLOUDY    61  59  94 E8        30.14S FOG
ARLINGTON      CLOUDY    62  58  86 E10       30.13S
GRAND PRAIRIE  CLOUDY    60  60 100 E8        30.15R
ADDISON        CLOUDY    63  59  88 E12G20    30.16R
MESQUITE       CLOUDY    60  58  92 E9        30.15S
LANCASTER      CLOUDY    60  57  87 E6        30.15S
$$

TXZ091>094-102>105-117-120-121-131>134-221100-
NORTH CENTRAL TEXAS

CITY           SKY/WX    TMP DP  RH WIND       PRES   REMARKS
SHRMAN/DENISON CLOUDY    61  58  89 SE10      30.17F
GAINESVILLE    CLOUDY    60  56  88 E8        30.17R
BOWIE          CLOUDY    59  59 100 E7        30.14S
BRIDGEPORT     CLOUDY    61  60  97 SE7       30.14S
DECATUR        CLOUDY    60  59  96 E9        30.13S
DENTON         CLOUDY    62  58  86 SE10      30.14S
MCKINNEY       CLOUDY    61  57  87 E10       30.15S
GREENVILLE     CLOUDY    59  55  88 E6        30.17R
ROCKWALL       CLOUDY    60  57  91 E10       30.14S
TERRELL        CLOUDY    61  58  90 E9        30.15S
WAXAHACHIE     CLOUDY    60  60 100 E5        30.15R
CLEBURNE       CLOUDY    59  59 100 E9        30.14S
GRANBURY         N/A     62  60  93 E7        30.13S
$$

TXZ083>090-098>101-113>116-127>130-139>142-154-155-221100-
WESTERN NORTH TEXAS

CITY           SKY/WX    TMP DP  RH WIND       PRES   REMARKS
WICHITA FALLS  CLOUDY    59  54  83 E7        30.13F
WF-KICKAPOO    CLOUDY    61  55  81 E7        30.13F
VERNON         CLOUDY    60  54  80 E8        30.13S
ABILENE        CLOUDY    58  57  97 SE9       30.10S
ABILENE-DYESS  CLOUDY    58  56  90 S7        30.09S
BRECKENRIDGE   CLOUDY    61  59  94 SE3       30.11S
GRAHAM         CLOUDY    60  58  94 SE5       30.11S
MINERAL WELLS  CLOUDY    60  59  96 SE8       30.11R FOG
STEPHENVILLE   CLOUDY    60  58  93 SE5       30.14S
COMANCHE       CLOUDY    59  59 100 SE7       30.12F FOG
COLEMAN        CLOUDY    59  59 100 SE8       30.11R FOG
$$

TXZ143>147-156>162-174-175-221100-
CENTRAL TEXAS

CITY           SKY/WX    TMP DP  RH WIND       PRES   REMARKS
WACO           CLOUDY    61  60  97 E8        30.12R
WACO-MCGREGOR  CLOUDY    63  57  82 E9        30.13R
HILLSBORO      CLOUDY    60  57  91 E9        30.13S
CORSICANA      CLOUDY    62  59  90 E6        30.14S
MEXIA          CLOUDY    60  58  94 E5        30.12R
HEARNE         CLOUDY    64  63  97 E6        30.12R
CAMERON        CLOUDY    64  64  97 E7        30.10F
TEMPLE         CLOUDY    63  57  82 E7        30.10S
KILLEEN        CLOUDY    61  61 100 E3        30.10S FOG
KILLEEN-SKYLRK CLOUDY    63  57  82 E3        30.11F
FORT HOOD      CLOUDY    61  61  98 E3        30.10R FOG
GATESVILLE     CLOUDY    61  61 100 CALM      30.14S FOG
HAMILTON       CLOUDY    60  60 100 SE5       30.13F FOG
LAMPASAS       CLOUDY    60  60  97 E3        30.10F FOG
$$

TXZ095>097-106>112-122>126-135>138-148>153-164>167-221100-
EAST TEXAS

CITY           SKY/WX    TMP DP  RH WIND       PRES   REMARKS
PARIS          PTCLDY    55  52  88 SE9       30.20R
SULPHUR SPRNGS CLOUDY    59  56  91 SE9       30.20S
MOUNT PLEASANT CLEAR     55  54  94 E5        30.22R
GILMER         CLOUDY    56  55  95 CALM      30.20R
MINEOLA        CLOUDY    61  57  88 E3        30.18F
TYLER          CLOUDY    60  57  89 E9        30.16S
LONGVIEW       PTCLDY    57  54  89 N3        30.19R
MARSHALL       PTCLDY    56  53  89 CALM      30.21R
ATHENS         CLOUDY    59  55  88 E7        30.14S
PALESTINE      CLOUDY    61  59  95 E7        30.15R
JACKSONVILLE   CLOUDY    58  57  96 NE7       30.17R FOG
HENDERSON      PTCLDY    57  56  94 NE5       30.19R
NACOGDOCHES    CLOUDY    57  55  94 E8        30.15R
LUFKIN         CLOUDY    62  58  86 E10       30.14R
$$

SUPPLEMENTAL OBSERVATIONS (CENTRAL)

CITY           SKY/WX    TMP DP  RH WIND       PRES   REMARKS
$$

SUPPLEMENTAL OBSERVATIONS (WEST)

CITY           SKY/WX    TMP DP  RH WIND       PRES   REMARKS
$$

SUPPLEMENTAL OBSERVATIONS (EAST)

CITY           SKY/WX    TMP DP  RH WIND       PRES   REMARKS
$$

SUPPLEMENTAL OBSERVATIONS ARE A COLLECTION OF AUTOMATED INSTRUMENTS
THAT ARE MAINTAINED BY A VARIETY OF FEDERAL AND STATE AGENCIES.
CERTAIN ELEMENTS...SUCH AS HUMIDITY VALUES AND SUSTAINED WIND
SPEEDS...MAY BE APPROXIMATED.




USA.gov is the U.S. government's official web portal to all federal, state and local government web resources and services.